Regional Weather Roundup
Issued by NWS

Home | Current Version | Previous Version | Text Only | Print | Product List | Glossary Off
Versions: 1 2 3 4 5 6 7 8 9 10 11 12 13 14 15 16 17 18 19 20 21 22 23 24 25 26 27 28 29 30 31 32 33 34 35 36 37 38 39 40 41 42 43 44 45 46 47 48 49 50

000
ASUS44 KMEG 250010
RWRTN
TENNESSEE HOURLY STATE WEATHER ROUNDUP
NATIONAL WEATHER SERVICE MEMPHIS TN
700 PM CDT WED AUG 24 2016

TNZ002-004-019-021-049-052-054-088>092-250100-
WEST TENNESSEE

CITY           SKY/WX    TMP DP  RH WIND       PRES   REMARKS
MEMPHIS INTL   PTCLDY    91  73  55 S7        30.09R HX  99
NWS MEMPHIS      N/A     91 N/A N/A MISG        N/A
JACKSON        CLEAR     87  78  74 CALM      30.09S HX 100
DYERSBURG      CLEAR    N/A N/A N/A MISG        N/A
UNION CITY     CLEAR     88  75  66 S3        30.06S HX  97
PARIS          CLEAR     84  75  74 CALM      30.09S HX  92
LEXINGTON      CLEAR     86  77  74 CALM        N/A  HX  97
$$

TNZ008-025-027-028-033-062-065-066-250100-
NORTH MIDDLE TENNESSEE

CITY           SKY/WX    TMP DP  RH WIND       PRES   REMARKS
NASHVILLE      MOCLDY    88  71  57 CALM      30.12S HX  94
CLARKSVILLE    CLOUDY    85  73  67 S7        30.10S HX  91
SMYRNA         CLEAR     90  72  55 SW6       30.13F HX  96
COOKEVILLE     CLEAR     84  75  74 SE3       30.16R HX  92
CROSSVILLE     CLEAR     80  71  74 CALM      30.22S
$$

TNZ061-075-076-078-094-096-097-250100-
SOUTH MIDDLE TENNESSEE

CITY           SKY/WX    TMP DP  RH WIND       PRES   REMARKS
FAYETTEVILLE   CLEAR     86  73  66 CALM      30.15S HX  93
TULLAHOMA      CLEAR     84  70  61 CALM      30.17S
WINCHESTER     CLEAR     86  75  70 CALM      30.16R HX  95
MCMINNVILLE    CLEAR     86  75  70 CALM      30.16S HX  95
COLUMBIA       CLEAR     90  79  70 S3        30.11S HX 105
SHELBYVILLE    CLEAR     88  75  66 CALM      30.15S HX  97
$$

TNZ017-018-042-046-047-250100-
NORTHEAST TENNESSEE

CITY           SKY/WX    TMP DP  RH WIND       PRES   REMARKS
TRI CITIES     MOCLDY    80  68  66 CALM      30.22R
ELIZABETHTON   CLEAR     73  70  88 CALM      30.22R
$$

TNZ012-013-036-069-073-074-250100-
CENTRAL EAST TENNESSEE

CITY           SKY/WX    TMP DP  RH WIND       PRES   REMARKS
KNOXVILLE      PTCLDY    85  69  58 W6        30.15F
GATLINBURG       N/A     84  66  54 W5        30.16S
MORRISTOWN     MOCLDY    82  72  69 CALM      30.18S
$$

TNZ083-085-099-250100-
SOUTHEAST TENNESSEE

CITY           SKY/WX    TMP DP  RH WIND       PRES   REMARKS
CHATTANOOGA    MOCLDY    88  71  57 SE6       30.15S HX  94
$$

SKY/WX REPORTED AS FAIR MEANS FEW OR NO CLOUDS BELOW
12 THOUSAND FEET.





USA.gov is the U.S. government's official web portal to all federal, state and local government web resources and services.